Temp
-16 -16 -15 -16 -15 -15 -15 -15 -14 -16 -15 -14 -16 -16 -16 -16 -16 -16 -16 -17 -17 -17 -17 -17 -16 -16 -16 -16 -17 -18 -18 -18 -19 -19 -19 -19 -18 -19 -19 -19 -20 -21 -23 -24
-15 -15 -15 -15 -16 -15 -15 -15 -15 -15 -15 -15 -16 -16 -16 -16 -16 -16 -16 -17 -17 -17 -17 -17 -17 -16 -16 -16 -17 -18 -19 -19 -19 -19 -19 -19 -19 -19 -19 -19 -19 -20 -21 -24
-15 -15 -15 -16 -16 -15 -15 -15 -15 -15 -15 -15 -16 -16 -16 -16 -16 -16 -17 -17 -17 -17 -17 -17 -17 -17 -17 -17 -17 -18 -19 -19 -19 -19 -19 -19 -19 -19 -19 -19 -19 -20 -21 -22
-16 -16 -16 -17 -16 -15 -15 -15 -15 -15 -15 -15 -16 -16 -16 -16 -16 -16 -17 -17 -17 -17 -17 -17 -17 -17 -17 -17 -18 -18 -18 -19 -19 -19 -19 -19 -19 -19 -19 -19 -19 -19 -20 -21
-16 -16 -17 -16 -15 -15 -15 -15 -15 -15 -15 -15 -16 -16 -16 -16 -16 -17 -17 -17 -17 -17 -18 -18 -17 -17 -17 -17 -18 -18 -18 -19 -19 -19 -19 -20 -20 -20 -19 -19 -19 -19 -20 -20
-16 -17 -16 -15 -15 -15 -15 -15 -15 -15 -15 -15 -16 -16 -16 -16 -16 -17 -17 -17 -18 -18 -18 -17 -17 -17 -17 -18 -18 -18 -19 -19 -19 -19 -19 -20 -20 -20 -20 -20 -20 -19 -19 -20
-16 -16 -16 -16 -15 -15 -15 -15 -15 -15 -15 -16 -16 -16 -16 -16 -17 -17 -17 -18 -18 -18 -18 -18 -17 -17 -18 -18 -18 -18 -19 -19 -19 -19 -19 -20 -20 -20 -20 -20 -20 -20 -20 -20
-16 -16 -16 -16 -15 -15 -15 -15 -15 -15 -16 -16 -16 -16 -16 -16 -17 -17 -17 -17 -18 -18 -18 -18 -18 -18 -17 -18 -18 -18 -19 -19 -19 -19 -19 -20 -20 -20 -20 -20 -20 -20 -20 -20
-17 -17 -16 -16 -15 -15 -15 -15 -15 -16 -16 -16 -16 -16 -16 -17 -17 -17 -17 -17 -18 -18 -18 -18 -17 -17 -17 -18 -18 -18 -19 -19 -19 -19 -19 -19 -19 -20 -20 -20 -20 -20 -20 -20
-17 -16 -16 -16 -16 -15 -15 -15 -16 -15 -16 -16 -16 -16 -17 -17 -17 -17 -17 -17 -17 -18 -17 -17 -17 -17 -18 -18 -18 -18 -18 -18 -19 -19 -19 -19 -19 -19 -20 -20 -20 -20 -20 -20
-17 -16 -16 -16 -16 -15 -15 -15 -15 -15 -16 -16 -16 -16 -17 -17 -17 -17 -17 -17 -17 -17 -17 -18 -18 -18 -18 -18 -18 -18 -18 -18 -19 -19 -19 -19 -19 -19 -19 -20 -20 -20 -20 -20
-17 -16 -16 -16 -16 -15 -15 -15 -15 -15 -16 -16 -16 -16 -16 -17 -17 -17 -17 -17 -17 -17 -18 -18 -18 -18 -18 -18 -18 -18 -18 -18 -18 -19 -19 -19 -19 -19 -19 -20 -20 -20 -20 -20
-15 -16 -16 -16 -16 -15 -15 -15 -15 -15 -15 -16 -16 -16 -16 -17 -17 -17 -17 -17 -17 -17 -18 -18 -18 -18 -18 -18 -18 -18 -18 -18 -18 -19 -19 -19 -19 -19 -19 -20 -20 -20 -20 -20
-16 -16 -16 -16 -16 -15 -15 -15 -15 -15 -16 -16 -16 -16 -17 -17 -17 -17 -17 -17 -17 -17 -17 -18 -18 -18 -18 -18 -18 -18 -18 -18 -18 -18 -18 -18 -19 -19 -19 -20 -20 -20 -21 -21
-17 -16 -16 -16 -16 -15 -15 -15 -15 -15 -15 -16 -16 -16 -16 -16 -17 -17 -17 -17 -17 -17 -17 -18 -18 -18 -18 -18 -18 -18 -18 -18 -18 -18 -18 -19 -19 -19 -19 -20 -20 -20 -21 -21
-17 -16 -16 -16 -15 -15 -15 -15 -15 -15 -15 -16 -16 -16 -16 -17 -17 -17 -17 -17 -17 -17 -17 -17 -17 -17 -17 -17 -18 -18 -18 -18 -18 -19 -19 -19 -19 -19 -20 -20 -20 -20 -21 -21
-16 -16 -16 -16 -15 -15 -15 -15 -15 -15 -15 -15 -16 -16 -16 -16 -16 -17 -17 -17 -17 -17 -17 -17 -17 -17 -17 -17 -18 -18 -18 -18 -19 -19 -19 -19 -19 -19 -20 -20 -20 -20 -21 -21
-16 -16 -16 -16 -15 -15 -15 -15 -15 -15 -15 -15 -15 -16 -16 -16 -16 -16 -16 -17 -17 -17 -17 -17 -17 -17 -17 -17 -18 -18 -18 -18 -18 -18 -19 -19 -19 -19 -20 -20 -20 -20 -21 -21
-16 -16 -16 -16 -15 -15 -15 -15 -15 -15 -15 -15 -15 -16 -16 -16 -16 -16 -16 -16 -16 -17 -17 -17 -17 -17 -17 -17 -17 -17 -17 -18 -18 -18 -19 -19 -19 -19 -20 -20 -20 -20 -21 -21
-16 -16 -15 -15 -15 -15 -15 -14 -15 -15 -15 -15 -15 -15 -15 -16 -16 -16 -16 -16 -16 -17 -17 -17 -17 -17 -17 -17 -17 -17 -17 -17 -18 -18 -18 -19 -19 -19 -20 -20 -20 -21 -21 -21
-16 -16 -15 -15 -15 -15 -15 -14 -15 -15 -15 -15 -15 -15 -15 -15 -15 -16 -16 -16 -16 -16 -16 -16 -16 -16 -16 -17 -17 -17 -17 -18 -18 -18 -19 -19 -19 -20 -20 -20 -20 -21 -21 -21
-16 -15 -15 -15 -15 -15 -14 -14 -14 -14 -15 -14 -15 -15 -15 -15 -15 -15 -15 -15 -16 -16 -16 -16 -16 -16 -16 -17 -17 -17 -17 -18 -18 -18 -19 -19 -19 -20 -20 -20 -20 -21 -21 -21
-16 -15 -15 -15 -15 -15 -14 -14 -14 -14 -14 -14 -14 -14 -14 -15 -15 -15 -15 -15 -16 -16 -16 -16 -16 -16 -16 -17 -17 -17 -18 -18 -18 -19 -19 -19 -19 -19 -20 -20 -21 -21 -21 -21
-16 -16 -15 -15 -15 -15 -14 -15 -15 -14 -14 -14 -14 -14 -14 -14 -15 -15 -15 -15 -15 -16 -16 -16 -16 -16 -17 -17 -17 -17 -18 -18 -18 -19 -19 -19 -19 -20 -20 -20 -21 -21 -21 -22
-16 -16 -15 -15 -15 -15 -15 -15 -14 -14 -14 -14 -14 -14 -14 -15 -15 -15 -15 -15 -15 -16 -16 -16 -16 -16 -17 -17 -17 -17 -18 -18 -19 -19 -19 -19 -20 -20 -20 -21 -21 -21 -22 -22
-17 -16 -16 -15 -15 -15 -15 -15 -14 -14 -14 -14 -15 -14 -15 -15 -15 -15 -15 -15 -15 -16 -16 -16 -16 -17 -17 -17 -17 -18 -18 -18 -18 -19 -19 -19 -20 -20 -21 -21 -21 -21 -22 -22
-17 -17 -16 -15 -15 -15 -15 -15 -15 -15 -15 -15 -15 -15 -15 -15 -15 -15 -15 -15 -16 -16 -16 -16 -17 -17 -17 -17 -17 -18 -18 -18 -19 -19 -19 -20 -20 -21 -21 -21 -21 -22 -22 -22
Height
5727 5727 5732 5734 5735 5738 5741 5742 5743 5744 5744 5745 5746 5746 5746 5746 5745 5744 5741 5739 5735 5732 5729 5727 5723 5718 5713 5706 5699 5690 5682 5673 5664 5654 5642 5631 5618 5605 5592 5579 5564 5550 5539 5534
5721 5724 5726 5728 5730 5735 5737 5738 5740 5739 5740 5742 5743 5743 5743 5743 5743 5741 5739 5735 5733 5730 5728 5725 5722 5716 5711 5704 5697 5689 5682 5674 5665 5655 5644 5633 5621 5609 5597 5585 5572 5558 5546 5537
5718 5719 5721 5724 5729 5731 5733 5734 5736 5737 5737 5739 5740 5740 5740 5741 5739 5738 5736 5734 5731 5729 5726 5723 5719 5713 5708 5702 5696 5689 5682 5674 5665 5656 5646 5635 5624 5613 5602 5591 5579 5567 5554 5543
5712 5716 5719 5722 5725 5728 5729 5731 5733 5733 5734 5736 5737 5737 5737 5737 5737 5736 5734 5732 5729 5727 5724 5721 5716 5711 5706 5700 5694 5688 5682 5674 5666 5657 5647 5637 5627 5617 5607 5597 5586 5575 5563 5552
5710 5713 5717 5720 5723 5725 5726 5729 5730 5731 5732 5733 5733 5734 5735 5735 5735 5734 5732 5730 5727 5724 5721 5718 5713 5709 5704 5699 5694 5688 5682 5675 5667 5658 5649 5640 5630 5621 5611 5602 5592 5582 5572 5561
5707 5709 5713 5717 5720 5722 5724 5726 5727 5728 5729 5730 5731 5732 5732 5733 5733 5731 5730 5728 5725 5722 5719 5715 5711 5707 5703 5698 5693 5688 5682 5675 5668 5660 5651 5643 5634 5625 5616 5607 5598 5589 5579 5570
5705 5707 5711 5715 5717 5720 5722 5727 5725 5725 5725 5727 5728 5730 5729 5731 5731 5730 5728 5725 5722 5720 5717 5714 5710 5706 5701 5697 5692 5687 5681 5675 5669 5661 5654 5646 5637 5629 5620 5612 5604 5595 5587 5578
5702 5706 5709 5713 5716 5719 5720 5721 5723 5722 5723 5724 5726 5726 5728 5729 5729 5728 5726 5723 5721 5719 5717 5713 5709 5705 5701 5696 5692 5687 5682 5676 5669 5663 5656 5649 5641 5633 5624 5617 5609 5601 5594 5586
5701 5704 5707 5710 5713 5716 5718 5719 5719 5720 5721 5722 5723 5725 5726 5727 5727 5725 5723 5722 5721 5719 5716 5712 5708 5704 5700 5696 5691 5686 5682 5676 5670 5664 5658 5651 5644 5637 5629 5621 5614 5607 5600 5593
5697 5701 5704 5708 5711 5714 5716 5716 5717 5718 5720 5721 5722 5723 5725 5726 5725 5723 5722 5721 5720 5718 5715 5711 5707 5703 5699 5695 5691 5686 5681 5676 5671 5666 5660 5654 5647 5640 5633 5626 5619 5613 5606 5599
5693 5698 5702 5706 5709 5712 5713 5715 5716 5718 5718 5719 5719 5720 5722 5722 5722 5722 5720 5719 5719 5717 5713 5710 5706 5703 5699 5695 5691 5686 5681 5677 5673 5668 5662 5657 5650 5644 5637 5631 5624 5618 5611 5605
5690 5695 5700 5704 5707 5709 5711 5713 5714 5715 5716 5716 5716 5718 5719 5720 5720 5720 5720 5719 5717 5715 5712 5710 5706 5702 5699 5695 5691 5687 5682 5678 5674 5670 5665 5659 5653 5647 5642 5635 5629 5622 5616 5610
5687 5693 5698 5701 5705 5708 5709 5711 5713 5714 5714 5713 5713 5715 5717 5718 5718 5718 5718 5717 5715 5714 5712 5709 5705 5702 5698 5695 5691 5687 5683 5680 5676 5672 5667 5662 5656 5651 5645 5639 5633 5627 5621 5614
5687 5691 5695 5699 5703 5705 5708 5710 5711 5712 5712 5711 5711 5713 5714 5715 5716 5716 5715 5715 5713 5712 5710 5707 5704 5701 5698 5695 5692 5688 5685 5681 5677 5673 5668 5664 5659 5653 5647 5642 5636 5630 5624 5618
5683 5688 5692 5697 5700 5703 5705 5707 5709 5710 5709 5709 5709 5711 5711 5713 5714 5713 5713 5713 5711 5710 5709 5706 5704 5701 5698 5695 5692 5688 5685 5682 5678 5674 5669 5665 5659 5654 5649 5644 5639 5633 5628 5622
5679 5683 5689 5694 5697 5701 5703 5705 5707 5707 5707 5706 5707 5709 5710 5711 5711 5711 5711 5710 5709 5709 5707 5705 5702 5700 5697 5695 5692 5689 5686 5683 5679 5675 5670 5665 5660 5655 5651 5646 5641 5636 5630 5625
5674 5681 5687 5691 5694 5698 5701 5703 5705 5705 5704 5704 5705 5707 5708 5708 5709 5709 5708 5708 5708 5707 5706 5704 5702 5699 5697 5694 5692 5689 5686 5682 5678 5674 5670 5665 5660 5655 5650 5645 5641 5636 5631 5626
5672 5677 5683 5686 5690 5694 5698 5701 5703 5703 5703 5703 5704 5704 5705 5706 5707 5706 5706 5706 5706 5705 5704 5702 5700 5698 5696 5694 5691 5688 5685 5682 5678 5673 5669 5664 5660 5656 5651 5646 5641 5636 5631 5627
5668 5672 5677 5681 5686 5691 5694 5698 5700 5701 5701 5701 5701 5702 5702 5704 5704 5705 5705 5704 5704 5703 5702 5700 5698 5696 5694 5691 5689 5687 5683 5680 5676 5672 5668 5664 5659 5655 5650 5645 5640 5635 5631 5626
5663 5668 5673 5678 5683 5687 5691 5694 5697 5698 5699 5698 5699 5699 5700 5701 5702 5703 5703 5702 5702 5701 5699 5698 5696 5694 5692 5690 5688 5685 5681 5678 5675 5671 5666 5662 5657 5653 5649 5644 5639 5634 5630 5625
5658 5663 5669 5674 5679 5683 5686 5690 5693 5695 5696 5696 5696 5696 5697 5699 5700 5701 5701 5700 5700 5698 5697 5696 5694 5692 5690 5687 5685 5683 5680 5676 5672 5668 5664 5660 5655 5651 5646 5641 5637 5632 5628 5624
5652 5658 5664 5669 5674 5678 5681 5686 5689 5691 5692 5692 5693 5694 5695 5696 5698 5699 5699 5698 5697 5696 5694 5693 5691 5689 5687 5685 5682 5679 5676 5673 5670 5666 5662 5657 5652 5648 5644 5640 5635 5630 5625 5621
5646 5652 5657 5663 5668 5672 5676 5681 5685 5686 5688 5688 5690 5691 5692 5694 5695 5695 5695 5695 5695 5693 5691 5690 5688 5686 5683 5681 5679 5676 5673 5670 5666 5663 5659 5654 5649 5644 5640 5635 5630 5626 5622 5617
5641 5646 5651 5657 5661 5666 5672 5676 5679 5681 5683 5684 5686 5687 5689 5690 5691 5692 5691 5691 5690 5690 5688 5686 5684 5682 5680 5677 5675 5672 5669 5666 5662 5658 5654 5650 5645 5641 5636 5631 5626 5622 5617 5612
5635 5640 5645 5651 5655 5661 5665 5670 5673 5676 5678 5680 5681 5683 5685 5686 5687 5687 5687 5686 5685 5684 5682 5681 5679 5677 5675 5673 5670 5667 5663 5660 5656 5653 5648 5644 5640 5635 5630 5625 5620 5615 5610 5605
5629 5635 5639 5643 5648 5653 5659 5663 5668 5670 5673 5675 5676 5678 5679 5680 5681 5682 5681 5681 5680 5679 5677 5676 5674 5672 5670 5667 5664 5661 5657 5653 5649 5646 5642 5638 5633 5628 5624 5619 5614 5608 5603 5598
5625 5629 5633 5637 5642 5648 5654 5658 5661 5665 5667 5669 5670 5672 5674 5675 5676 5677 5676 5676 5675 5674 5672 5671 5668 5666 5663 5661 5658 5654 5651 5647 5643 5639 5635 5630 5626 5621 5616 5611 5606 5602 5596 5591
Wind_Speed
25 31 24 23 18 17 15 14 15 15 17 12 9 13 15 14 16 15 17 18 19 21 20 21 21 23 28 31 35 39 42 45 48 53 55 54 54 52 54 57 61 60 41 26
25 26 27 26 17 16 13 14 14 18 16 11 10 14 14 15 15 15 17 18 19 20 20 19 20 22 26 29 34 37 40 42 47 52 53 52 52 50 50 53 57 59 54 32
20 24 26 20 13 17 16 15 15 13 15 11 12 14 14 15 14 15 16 16 19 20 19 19 19 21 24 28 32 36 39 41 45 49 52 51 50 49 48 49 53 56 57 48
30 25 18 11 16 14 14 13 12 14 12 12 13 13 13 13 14 15 14 16 19 20 17 17 17 19 22 26 31 34 37 39 43 48 50 50 48 48 45 46 48 52 54 54
25 15 11 13 13 14 11 12 12 12 10 10 13 13 12 12 12 13 14 15 18 18 16 16 16 18 21 25 30 34 35 38 42 46 48 47 47 46 43 43 44 47 51 53
21 13 12 12 13 12 11 11 11 10 10 12 12 12 13 10 11 11 12 15 17 17 15 15 15 18 21 25 29 31 34 37 41 44 45 45 44 43 41 41 41 43 46 49
18 12 11 11 12 11 10 9 10 9 9 9 11 10 11 9 8 10 10 13 15 16 16 15 17 19 24 27 28 30 32 36 40 42 42 42 42 41 40 39 40 40 42 44
11 12 10 13 12 9 10 9 8 9 9 9 10 12 9 8 7 7 8 13 16 17 17 17 19 23 26 26 27 28 31 35 38 39 40 40 40 39 38 38 38 39 40 40
14 14 13 14 11 10 9 7 8 8 8 9 11 10 10 8 6 6 8 13 15 18 19 20 21 22 23 24 25 28 30 33 35 37 37 37 37 37 37 36 37 39 39 39
22 18 16 15 13 11 10 7 6 7 9 10 10 11 10 8 6 6 8 12 15 17 17 18 19 21 23 25 26 28 29 31 33 33 34 34 35 35 36 38 38 38 39 39
24 20 18 16 13 13 8 4 4 8 11 12 12 11 11 8 6 6 5 9 13 14 16 18 21 23 24 25 27 27 28 29 30 32 32 32 32 34 36 38 38 38 38 38
26 20 19 16 15 13 7 5 5 8 10 10 10 11 10 9 7 8 9 9 12 14 16 19 22 24 25 26 26 27 27 27 29 30 29 30 31 33 36 37 38 38 40 41
25 20 19 18 17 13 9 7 7 8 8 10 10 10 11 9 8 7 9 10 12 14 17 19 22 24 25 26 25 25 26 27 28 28 28 30 32 34 36 37 38 38 40 40
24 22 22 20 17 13 10 8 7 7 8 8 6 9 10 9 9 9 10 11 13 14 16 19 22 24 25 24 24 24 26 27 28 28 29 31 32 34 35 36 36 37 38 39
24 25 24 19 17 13 9 7 5 5 6 6 4 5 5 6 8 11 11 11 13 15 16 18 22 23 23 22 23 23 25 26 27 28 30 32 33 34 35 35 35 36 37 38
27 28 24 20 19 14 9 7 4 3 3 3 3 4 2 4 7 9 8 9 12 14 15 18 20 20 20 21 22 23 23 24 26 28 30 32 33 34 34 34 34 36 36 37
30 26 23 22 21 16 11 7 4 3 1 2 3 4 5 6 7 6 7 9 10 12 14 16 16 16 19 19 20 21 21 23 26 29 31 33 33 33 32 31 31 32 31 32
28 26 26 24 22 17 13 9 6 4 2 3 3 3 3 5 8 6 6 7 8 10 11 13 14 14 17 18 19 20 21 24 27 30 32 33 34 34 33 31 31 31 29 29
29 28 26 26 24 20 15 11 7 7 3 3 2 3 3 7 7 4 3 5 7 9 11 12 12 13 15 16 17 19 21 24 27 29 32 34 35 34 32 30 29 29 28 27
29 27 25 27 25 22 18 13 10 9 6 4 2 2 2 5 4 3 2 4 7 8 9 8 10 12 14 16 18 20 22 26 28 30 32 33 34 33 33 31 30 29 27 27
31 27 26 27 26 24 20 16 13 11 8 6 5 4 4 4 4 4 4 4 4 6 7 9 11 13 15 17 20 22 25 27 28 29 31 33 33 33 32 32 31 31 29 28
32 31 26 25 27 27 23 19 16 12 11 8 8 7 5 4 5 4 4 4 4 6 8 10 13 15 18 20 22 24 25 26 28 29 31 32 33 32 33 34 34 33 31 31
33 32 29 26 29 30 28 22 17 16 13 12 11 10 7 6 5 6 7 8 9 11 12 14 16 17 19 21 23 24 25 27 28 29 32 33 34 34 33 33 33 33 33 34
29 32 31 28 32 33 28 23 21 20 16 14 13 11 9 9 8 9 8 7 9 10 12 14 16 17 20 22 22 23 25 27 28 29 32 33 33 34 33 34 35 35 36 36
29 29 33 30 33 33 31 28 25 21 18 16 16 14 13 12 11 7 6 6 8 8 10 12 14 17 19 21 22 23 25 27 29 30 31 33 33 32 33 33 34 35 37 38
26 28 30 31 35 36 34 31 26 24 21 18 19 18 17 15 13 10 8 8 8 9 11 13 16 18 20 22 23 23 25 27 29 31 32 33 32 32 33 34 37 38 39 39
26 28 32 33 33 34 34 31 27 24 22 22 21 21 20 18 16 14 12 13 13 13 14 15 17 18 21 24 25 26 28 29 30 32 32 33 34 33 34 37 39 40 40 42
Wind_Direction
245 256 260 262 255 257 246 240 243 230 241 255 263 270 273 280 291 304 311 311 322 325 322 328 341 347 348 348 346 350 354 359 359 360 1 3 5 9 11 15 17 20 23 22
235 243 252 251 238 250 235 246 230 232 250 266 265 264 274 281 294 306 311 318 324 327 324 332 344 348 346 347 347 351 356 0 360 1 1 4 6 9 12 16 19 20 23 23
238 245 246 233 241 234 236 239 232 246 256 271 255 265 271 282 299 307 315 321 330 331 329 339 343 346 346 345 345 352 358 1 1 2 2 4 7 10 14 16 21 22 23 24
237 235 235 219 229 230 237 233 237 245 254 259 264 265 270 282 297 308 320 330 335 333 333 335 338 344 343 343 346 355 0 1 2 3 2 5 8 11 14 17 21 24 24 26
223 203 211 218 221 230 227 235 238 248 258 253 254 270 270 283 300 312 327 336 338 333 329 325 336 339 341 341 349 358 360 1 3 2 3 5 8 11 14 18 21 25 26 27
198 184 214 205 220 223 230 230 235 245 247 252 263 269 265 285 299 322 329 341 337 327 318 321 331 335 338 342 352 358 359 1 3 2 4 6 9 11 14 18 22 25 27 28
219 185 209 210 219 220 222 220 236 250 262 264 264 261 259 280 308 320 330 341 329 321 318 325 334 337 341 346 353 355 357 1 3 3 5 7 10 12 14 17 21 24 27 29
236 191 224 216 221 218 224 232 248 266 267 262 251 250 258 280 300 316 339 336 329 328 331 335 341 350 352 353 354 354 357 1 4 4 6 10 12 13 15 17 19 22 26 29
238 227 228 221 220 219 230 238 260 266 258 253 260 252 256 274 292 321 342 339 332 334 340 346 355 360 358 355 355 357 360 3 5 6 9 12 13 15 17 17 18 20 23 25
243 226 227 221 217 218 229 240 258 255 246 259 261 251 253 269 300 326 354 339 333 343 352 359 1 360 358 358 358 2 5 6 7 8 11 13 16 16 17 17 18 19 21 22
225 219 218 213 211 217 224 228 250 262 267 265 256 244 245 259 288 307 341 343 340 347 352 359 1 1 360 359 3 6 7 8 9 10 13 15 17 17 18 19 20 20 19 20
211 209 209 211 207 214 199 200 243 259 249 253 253 241 242 257 285 312 330 328 332 342 347 357 359 359 359 2 4 6 9 10 10 12 14 16 15 15 17 19 19 18 19 20
206 204 204 208 205 204 195 209 246 266 258 236 237 239 244 253 281 313 326 320 322 334 343 348 352 356 0 2 5 9 11 11 10 11 12 14 14 13 13 15 16 17 19 18
208 209 204 203 201 200 206 228 245 253 261 265 253 249 245 260 285 304 311 320 324 326 334 343 349 356 0 4 10 12 11 10 10 11 12 13 13 12 12 14 15 15 16 17
205 213 206 198 200 199 210 220 224 249 262 264 269 257 258 277 289 294 314 319 317 327 336 344 349 358 3 8 12 13 12 13 13 12 9 9 10 11 12 13 14 16 16 17
205 213 201 198 202 205 202 203 217 257 256 264 255 245 263 275 294 312 320 306 315 330 338 347 354 2 8 11 13 12 13 12 10 8 8 8 9 11 13 13 13 14 16 17
204 208 205 200 205 205 196 197 222 268 164 140 162 196 239 282 302 307 298 307 323 336 346 352 359 8 12 11 9 9 9 7 5 5 5 6 7 9 9 10 12 13 14 17
205 207 206 203 207 207 200 204 235 245 161 136 162 216 276 292 278 285 297 313 334 344 354 353 6 6 5 6 4 3 4 3 0 360 1 2 3 4 5 5 7 8 10 13
208 209 206 207 208 207 204 210 233 246 222 203 218 264 280 276 274 286 304 323 337 347 352 352 358 356 357 359 359 358 357 354 355 356 359 360 1 2 3 2 1 2 2 4
211 211 207 209 209 208 210 213 228 238 236 217 220 242 228 253 258 259 297 332 339 345 348 345 347 347 349 350 350 350 348 350 353 353 354 356 357 357 357 356 356 356 357 357
216 213 212 212 211 211 214 214 225 235 234 222 226 230 213 238 252 272 303 333 336 342 341 344 342 342 343 343 342 344 347 347 348 349 350 352 352 354 353 352 351 351 350 349
225 221 214 213 216 213 218 216 224 232 237 234 227 227 229 239 257 266 278 298 305 309 321 330 332 334 337 340 340 343 344 343 344 345 347 347 348 350 350 349 347 346 346 345
223 223 216 214 216 215 218 217 222 232 240 240 235 229 234 245 256 260 272 292 299 309 322 334 337 336 337 338 340 341 338 338 340 343 344 346 346 346 346 345 343 342 342 340
233 231 223 221 218 215 217 217 221 229 236 240 232 230 228 243 250 266 285 311 334 332 343 346 345 340 337 338 338 337 337 336 337 339 343 344 345 345 344 341 341 342 342 340
237 232 228 222 218 215 217 218 221 228 234 238 234 231 233 247 256 272 310 328 347 352 356 349 343 342 338 334 331 333 334 333 335 338 341 342 342 341 337 337 337 336 334 334
235 233 234 221 215 215 217 219 220 226 233 239 234 231 238 249 260 275 291 304 312 316 332 338 338 340 335 332 329 328 328 332 336 339 338 336 335 333 332 332 332 331 331 332
229 225 228 220 216 215 217 219 222 229 232 237 242 235 242 249 257 270 284 294 297 307 316 319 327 332 333 332 327 325 326 329 334 334 330 330 328 328 327 328 328 329 329 330